Location: Betzi
(47.2343°N, 9.5260°E)
Time: 22:16:37
(UTC+00:00)

S3M - Pass Details

Date: 27 May 2022
Orbit: 948 x 1005 km, 83.0° (Epoch: 29 June)

Event Time Altitude Azimuth Distance (km) Brightness Sun altitude
Exits shadow 00:24:08 32° 218° (SW) 1,647 4.7 -19.9°
Maximum altitude 00:27:03 58° 283° (WNW) 1,156 4.3 -19.8°
Drops below altitude 10° 00:33:20 10° 2° (N) 2,771 7.5 -19.5°
Sets 00:35:55 0° 7° (N) 3,717 8.5 -19.3°
